This demonstration page uses our WeatherBlox Daily Observations layout. Learn more.

Left ArrowRight Arrow

38.80484, -77.04692

Hourly Observations for December 7, 2021

Temp ( °F °C ) Dew Point ( °F °C ) Humidity (%) Winds ( mph kmh ) Pressure ( in mb ) Visibility ( mi km ) Precip ( " mm )
12:52 am 00:52 Partly Cloudy 41 5 16 -8.9 36 36 WNW 16 26 30.09 1019 10 16 0.00 0.00
1:52 am 01:52 Mostly Clear 39 3.9 16 -8.9 39 39 W 7 11 30.13 1020 10 16 0.00 0.00
2:52 am 02:52 Mostly Clear 38 3.3 17 -8.3 43 43 NW 12 19 30.15 1021 10 16 0.00 0.00
3:52 am 03:52 Mostly Cloudy 38 3.3 17 -8.3 43 43 W 7 11 30.17 1022 10 16 0.00 0.00
4:52 am 04:52 Mostly Cloudy 36 2.2 16 -8.9 44 44 WNW 5 7 30.20 1023 10 16 0.00 0.00
5:52 am 05:52 Mostly Cloudy 36 2.2 15 -9.4 42 42 NNW 8 13 30.24 1024 10 16 0.00 0.00
6:52 am 06:52 Mostly Cloudy 37 2.8 15 -9.4 41 41 VRB 3 6 30.24 1024 10 16 0.00 0.00
7:52 am 07:52 Cloudy 37 2.8 15 -9.4 41 41 WNW 12 19 30.25 1024 10 16 0.00 0.00
8:52 am 08:52 Cloudy 38 3.3 15 -9.4 39 39 WNW 9 15 30.28 1025 10 16 0.00 0.00
9:52 am 09:52 Cloudy 40 4.4 17 -8.3 40 40 SW 5 7 30.29 1026 10 16 0.00 0.00
10:52 am 10:52 Mostly Cloudy 41 5 17 -8.3 38 38 WNW 9 15 30.29 1026 10 16 0.00 0.00
11:52 am 11:52 Mostly Cloudy 42 5.6 16 -8.9 35 35 NW 12 19 30.26 1025 10 16 0.00 0.00
12:52 pm 12:52 Mostly Cloudy 43 6.1 12 -11.1 28 28 NNW 12 19 30.24 1024 10 16 0.00 0.00
1:52 pm 13:52 Mostly Cloudy 44 6.7 13 -10.6 28 28 N 8 13 30.21 1023 10 16 0.00 0.00
2:52 pm 14:52 Mostly Cloudy 43 6.1 14 -10 31 31 NNW 10 17 30.22 1023 10 16 0.00 0.00
3:52 pm 15:52 Mostly Cloudy 43 6.1 14 -10 31 31 N 7 11 30.22 1023 10 16 0.00 0.00
4:52 pm 16:52 Mostly Cloudy 39 3.9 13 -10.6 34 34 N 7 11 30.21 1023 10 16 0.00 0.00
5:52 pm 17:52 Mostly Cloudy 40 4.4 12 -11.1 32 32 NNW 3 6 30.22 1023 10 16 0.00 0.00
6:52 pm 18:52 Partly Cloudy 39 3.9 15 -9.4 38 38 ENE 6 9 30.22 1023 10 16 0.00 0.00
7:52 pm 19:52 Partly Cloudy 38 3.3 16 -8.9 41 41 ENE 6 9 30.22 1023 10 16 0.00 0.00
8:52 pm 20:52 Partly Cloudy 38 3.3 16 -8.9 41 41 ENE 7 11 30.19 1022 10 16 0.00 0.00
9:52 pm 21:52 Mostly Cloudy 37 2.8 16 -8.9 42 42 NE 7 11 30.20 1023 10 16 0.00 0.00
10:52 pm 22:52 Mostly Cloudy 36 2.2 16 -8.9 44 44 Calm 30.19 1022 10 16 0.00 0.00
11:52 pm 23:52 Mostly Cloudy 37 2.8 19 -7.2 48 48 NE 6 9 30.18 1022 10 16 0.00 0.00

Powered by AerisWeather